Time,TemperatureF,DewpointF,PressureIn,WindDirection,WindDirectionDegrees,WindSpeedMPH,WindSpeedGustMPH,Humidity,HourlyPrecipIn,Conditions,Clouds,dailyrainin,SoftwareType,DateUTC
2013-03-19 00:00:00,41.0,40.5,29.83,SSE,158,0.0,0.0,98,0.00,RA,,0.00,WeatherDisplay:10.37,2013-03-19 04:00:00,
2013-03-19 00:05:00,41.0,40.5,29.83,West,270,0.0,0.0,98,0.00,RA,,0.00,WeatherDisplay:10.37,2013-03-19 04:05:00,
2013-03-19 00:06:00,41.0,40.5,29.83,West,270,0.0,0.0,98,0.00,RA,,0.00,WeatherDisplay:10.37,2013-03-19 04:06:00,
2013-03-19 00:11:00,41.2,40.7,29.83,WNW,292,0.0,0.0,98,0.00,CLR,,0.00,WeatherDisplay:10.37,2013-03-19 04:11:00,
2013-03-19 00:16:00,41.2,40.7,29.85,NNW,338,0.0,0.0,98,0.00,CLR,,0.00,WeatherDisplay:10.37,2013-03-19 04:16:00,
2013-03-19 00:21:00,41.2,40.7,29.85,SW,225,0.0,0.0,98,0.00,CLR,,0.00,WeatherDisplay:10.37,2013-03-19 04:21:00,
2013-03-19 00:26:00,41.2,40.7,29.85,NNW,338,0.0,0.0,98,0.00,CLR,,0.00,WeatherDisplay:10.37,2013-03-19 04:26:00,
2013-03-19 00:31:00,41.2,40.7,29.88,NNE,22,0.0,0.0,98,0.00,CLR,,0.00,WeatherDisplay:10.37,2013-03-19 04:31:00,
2013-03-19 00:37:00,41.2,40.7,29.88,North,0,0.0,0.0,98,0.00,CLR,,0.00,WeatherDisplay:10.37,2013-03-19 04:37:00,
2013-03-19 00:42:00,41.0,40.5,29.88,NW,315,0.0,0.0,98,0.00,CLR,,0.00,WeatherDisplay:10.37,2013-03-19 04:42:00,
2013-03-19 00:47:00,41.2,40.7,29.85,North,0,0.0,0.0,98,0.00,CLR,,0.00,WeatherDisplay:10.37,2013-03-19 04:47:00,
2013-03-19 00:52:00,41.2,40.7,29.85,NW,315,0.0,0.0,98,0.00,CLR,,0.00,WeatherDisplay:10.37,2013-03-19 04:52:00,
2013-03-19 00:57:00,41.2,40.7,29.85,NW,315,0.0,0.0,98,0.00,CLR,,0.00,WeatherDisplay:10.37,2013-03-19 04:57:00,
2013-03-19 01:02:00,41.2,40.7,29.83,NW,315,0.0,0.0,98,0.00,CLR,,0.00,WeatherDisplay:10.37,2013-03-19 05:02:00,
2013-03-19 01:07:00,41.2,40.7,29.83,NW,315,0.0,0.0,98,0.00,CLR,,0.00,WeatherDisplay:10.37,2013-03-19 05:07:00,
2013-03-19 01:12:00,41.2,40.7,29.85,ENE,68,0.0,0.0,98,0.00,CLR,,0.00,WeatherDisplay:10.37,2013-03-19 05:12:00,
2013-03-19 01:17:00,41.2,40.7,29.85,ENE,68,0.0,0.0,98,0.00,CLR,,0.00,WeatherDisplay:10.37,2013-03-19 05:17:00,
2013-03-19 01:22:00,41.2,40.7,29.85,SE,135,0.0,0.0,98,0.00,CLR,,0.00,WeatherDisplay:10.37,2013-03-19 05:22:00,
2013-03-19 01:27:00,41.2,40.7,29.85,SE,135,0.0,0.0,98,0.00,CLR,,0.00,WeatherDisplay:10.37,2013-03-19 05:27:00,
2013-03-19 01:32:00,41.2,40.7,29.85,WNW,292,0.0,0.0,98,0.00,CLR,,0.00,WeatherDisplay:10.37,2013-03-19 05:32:00,
2013-03-19 01:37:00,41.2,40.7,29.85,WNW,292,0.0,0.0,98,0.00,CLR,,0.00,WeatherDisplay:10.37,2013-03-19 05:37:00,
2013-03-19 01:42:00,41.2,40.7,29.85,WNW,292,0.0,0.0,98,0.00,CLR,,0.00,WeatherDisplay:10.37,2013-03-19 05:42:00,
2013-03-19 01:47:00,41.2,40.7,29.85,WNW,292,0.0,0.0,98,0.00,CLR,,0.00,WeatherDisplay:10.37,2013-03-19 05:47:00,
2013-03-19 01:52:00,41.2,40.7,29.85,WNW,292,0.0,0.0,98,0.00,CLR,,0.00,WeatherDisplay:10.37,2013-03-19 05:52:00,
2013-03-19 01:57:00,41.2,40.7,29.85,WNW,292,0.0,0.0,98,0.00,CLR,,0.00,WeatherDisplay:10.37,2013-03-19 05:57:00,
2013-03-19 02:02:00,41.2,40.7,29.85,WNW,292,0.0,0.0,98,0.00,CLR,,0.00,WeatherDisplay:10.37,2013-03-19 06:02:00,
2013-03-19 02:07:00,41.2,40.7,29.85,WNW,292,0.0,0.0,98,0.00,CLR,,0.00,WeatherDisplay:10.37,2013-03-19 06:07:00,
2013-03-19 02:12:00,41.2,40.7,29.85,WNW,292,0.0,0.0,98,0.00,CLR,,0.00,WeatherDisplay:10.37,2013-03-19 06:12:00,
2013-03-19 02:17:00,41.0,40.5,29.85,WNW,292,0.0,0.0,98,0.00,CLR,,0.00,WeatherDisplay:10.37,2013-03-19 06:17:00,
2013-03-19 02:22:00,41.0,40.5,29.85,North,0,0.0,0.0,98,0.00,CLR,,0.00,WeatherDisplay:10.37,2013-03-19 06:22:00,
2013-03-19 02:27:00,41.2,40.7,29.83,North,0,0.0,0.0,98,0.00,CLR,,0.00,WeatherDisplay:10.37,2013-03-19 06:27:00,
2013-03-19 02:32:00,41.0,40.5,29.83,North,0,0.0,0.0,98,0.00,CLR,,0.00,WeatherDisplay:10.37,2013-03-19 06:32:00,
2013-03-19 02:37:00,41.0,40.5,29.83,North,0,0.0,0.0,98,0.00,CLR,,0.00,WeatherDisplay:10.37,2013-03-19 06:37:00,
2013-03-19 02:42:00,41.0,40.5,29.83,NW,315,0.0,0.0,98,0.00,CLR,,0.00,WeatherDisplay:10.37,2013-03-19 06:42:00,
2013-03-19 02:47:00,41.0,40.5,29.83,NW,315,0.0,0.0,98,0.00,CLR,,0.00,WeatherDisplay:10.37,2013-03-19 06:47:00,
2013-03-19 02:52:00,41.0,40.5,29.83,NW,315,0.0,0.0,98,0.00,CLR,,0.00,WeatherDisplay:10.37,2013-03-19 06:52:00,
2013-03-19 02:57:00,41.0,40.5,29.83,NW,315,0.0,0.0,98,0.00,CLR,,0.00,WeatherDisplay:10.37,2013-03-19 06:57:00,
2013-03-19 03:02:00,41.0,40.5,29.83,NW,315,0.0,0.0,98,0.00,CLR,,0.00,WeatherDisplay:10.37,2013-03-19 07:02:00,
2013-03-19 03:07:00,41.0,40.5,29.83,NW,315,0.0,0.0,98,0.00,CLR,,0.00,WeatherDisplay:10.37,2013-03-19 07:07:00,
2013-03-19 03:12:00,40.8,40.3,29.80,WNW,292,0.0,0.0,98,0.00,CLR,,0.00,WeatherDisplay:10.37,2013-03-19 07:12:00,
2013-03-19 03:17:00,40.8,40.3,29.80,WNW,292,0.0,0.0,98,0.00,CLR,,0.00,WeatherDisplay:10.37,2013-03-19 07:17:00,
2013-03-19 03:22:00,40.8,40.3,29.80,NW,315,0.0,0.0,98,0.00,CLR,,0.00,WeatherDisplay:10.37,2013-03-19 07:22:00,
2013-03-19 03:27:00,40.6,40.1,29.83,NW,315,0.0,0.0,98,0.00,CLR,,0.00,WeatherDisplay:10.37,2013-03-19 07:27:00,
2013-03-19 03:32:00,40.6,40.1,29.83,WNW,292,0.0,0.0,98,0.00,CLR,,0.00,WeatherDisplay:10.37,2013-03-19 07:32:00,
2013-03-19 03:37:00,40.6,40.1,29.83,WNW,292,0.0,0.0,98,0.00,CLR,,0.00,WeatherDisplay:10.37,2013-03-19 07:37:00,
2013-03-19 03:42:00,40.6,40.1,29.83,NNW,338,0.0,0.0,98,0.00,CLR,,0.00,WeatherDisplay:10.37,2013-03-19 07:42:00,
2013-03-19 03:47:00,40.5,39.9,29.83,NNW,338,0.0,0.0,98,0.00,CLR,,0.00,WeatherDisplay:10.37,2013-03-19 07:47:00,
2013-03-19 03:52:00,40.5,39.9,29.83,NNW,338,0.0,0.0,98,0.00,CLR,,0.00,WeatherDisplay:10.37,2013-03-19 07:52:00,
2013-03-19 03:57:00,40.5,39.9,29.80,NNW,338,0.0,0.0,98,0.00,CLR,,0.00,WeatherDisplay:10.37,2013-03-19 07:57:00,
2013-03-19 04:02:00,40.5,39.9,29.80,NNW,338,0.0,0.0,98,0.00,CLR,,0.00,WeatherDisplay:10.37,2013-03-19 08:02:00,
2013-03-19 04:07:00,40.5,39.9,29.80,NNW,338,0.0,0.0,98,0.00,CLR,,0.00,WeatherDisplay:10.37,2013-03-19 08:07:00,
2013-03-19 04:12:00,40.5,39.9,29.80,NNW,338,0.0,0.0,98,0.00,CLR,,0.00,WeatherDisplay:10.37,2013-03-19 08:12:00,
2013-03-19 04:17:00,40.5,39.9,29.80,NNW,338,0.0,0.0,98,0.00,CLR,,0.00,WeatherDisplay:10.37,2013-03-19 08:17:00,
2013-03-19 04:22:00,40.5,39.9,29.80,NNW,338,0.0,0.0,98,0.00,CLR,,0.00,WeatherDisplay:10.37,2013-03-19 08:22:00,
2013-03-19 04:27:00,40.5,39.9,29.80,NNW,338,0.0,0.0,98,0.00,CLR,,0.00,WeatherDisplay:10.37,2013-03-19 08:27:00,
2013-03-19 04:32:00,40.5,39.9,29.80,NNW,338,0.0,0.0,98,0.00,CLR,,0.00,WeatherDisplay:10.37,2013-03-19 08:32:00,
2013-03-19 04:37:00,40.5,39.9,29.80,NNW,338,0.0,0.0,98,0.00,CLR,,0.00,WeatherDisplay:10.37,2013-03-19 08:37:00,
2013-03-19 04:42:00,40.5,39.9,29.80,NNW,338,0.0,0.0,98,0.00,CLR,,0.00,WeatherDisplay:10.37,2013-03-19 08:42:00,
2013-03-19 04:47:00,40.5,39.9,29.80,NNW,338,0.0,0.0,98,0.00,CLR,,0.00,WeatherDisplay:10.37,2013-03-19 08:47:00,
2013-03-19 04:52:00,40.5,39.9,29.80,NNW,338,0.0,0.0,98,0.00,CLR,,0.00,WeatherDisplay:10.37,2013-03-19 08:52:00,
2013-03-19 04:57:00,40.5,39.9,29.83,SE,135,0.0,0.0,98,0.00,CLR,,0.00,WeatherDisplay:10.37,2013-03-19 08:57:00,
2013-03-19 05:02:00,40.5,39.9,29.83,SW,225,0.0,0.0,98,0.00,CLR,,0.00,WeatherDisplay:10.37,2013-03-19 09:02:00,
2013-03-19 05:07:00,40.5,39.9,29.83,SE,135,0.0,0.0,98,0.00,CLR,,0.00,WeatherDisplay:10.37,2013-03-19 09:07:00,
2013-03-19 05:12:00,40.5,39.9,29.80,South,180,0.0,0.0,98,0.00,CLR,,0.00,WeatherDisplay:10.37,2013-03-19 09:12:00,
2013-03-19 05:17:00,40.6,40.1,29.80,SSE,158,0.0,0.0,98,0.00,CLR,,0.00,WeatherDisplay:10.37,2013-03-19 09:17:00,
2013-03-19 05:22:00,40.6,40.1,29.80,SSE,158,0.0,0.0,98,0.00,CLR,,0.00,WeatherDisplay:10.37,2013-03-19 09:22:00,
2013-03-19 05:27:00,40.6,40.1,29.83,SSE,158,0.0,0.0,98,0.00,CLR,,0.00,WeatherDisplay:10.37,2013-03-19 09:27:00,
2013-03-19 05:32:00,40.6,40.1,29.83,South,180,0.0,0.0,98,0.00,CLR,,0.00,WeatherDisplay:10.37,2013-03-19 09:32:00,
2013-03-19 05:37:00,40.6,40.1,29.83,South,180,0.0,0.0,98,0.00,CLR,,0.00,WeatherDisplay:10.37,2013-03-19 09:37:00,
2013-03-19 05:42:00,40.6,40.1,29.80,South,180,0.0,0.0,98,0.00,CLR,,0.00,WeatherDisplay:10.37,2013-03-19 09:42:00,
2013-03-19 05:47:00,40.6,40.1,29.80,South,180,0.0,0.0,98,0.00,CLR,,0.00,WeatherDisplay:10.37,2013-03-19 09:47:00,
2013-03-19 05:52:00,40.6,40.1,29.80,South,180,0.0,0.0,98,0.00,CLR,,0.00,WeatherDisplay:10.37,2013-03-19 09:52:00,
2013-03-19 05:58:00,40.6,40.1,29.80,South,180,0.0,0.0,98,0.00,CLR,,0.00,WeatherDisplay:10.37,2013-03-19 09:58:00,
2013-03-19 06:03:00,40.6,40.1,29.80,South,180,0.0,0.0,98,0.00,CLR,,0.00,WeatherDisplay:10.37,2013-03-19 10:03:00,
2013-03-19 06:08:00,40.6,40.1,29.80,South,180,0.0,0.0,98,0.00,CLR,,0.00,WeatherDisplay:10.37,2013-03-19 10:08:00,
2013-03-19 06:13:00,40.6,40.1,29.83,South,180,0.0,0.0,98,0.00,CLR,,0.00,WeatherDisplay:10.37,2013-03-19 10:13:00,
2013-03-19 06:18:00,40.8,40.3,29.83,SE,135,0.0,0.0,98,0.00,CLR,,0.00,WeatherDisplay:10.37,2013-03-19 10:18:00,
2013-03-19 06:23:00,40.8,40.3,29.83,SE,135,0.0,0.0,98,0.00,CLR,,0.00,WeatherDisplay:10.37,2013-03-19 10:23:00,
2013-03-19 06:28:00,40.8,40.3,29.80,SE,135,0.0,0.0,98,0.00,CLR,,0.00,WeatherDisplay:10.37,2013-03-19 10:28:00,
2013-03-19 06:33:00,40.8,40.3,29.80,SE,135,0.0,0.0,98,0.00,CLR,,0.00,WeatherDisplay:10.37,2013-03-19 10:33:00,
2013-03-19 06:38:00,40.8,40.3,29.80,SE,135,0.0,0.0,98,0.00,CLR,,0.00,WeatherDisplay:10.37,2013-03-19 10:38:00,
2013-03-19 06:43:00,40.8,40.3,29.83,SE,135,0.0,0.0,98,0.00,CLR,,0.00,WeatherDisplay:10.37,2013-03-19 10:43:00,
2013-03-19 06:48:00,40.8,40.3,29.83,SE,135,0.0,0.0,98,0.00,CLR,,0.00,WeatherDisplay:10.37,2013-03-19 10:48:00,
2013-03-19 06:53:00,40.8,40.3,29.83,SE,135,0.0,0.0,98,0.00,CLR,,0.00,WeatherDisplay:10.37,2013-03-19 10:53:00,
2013-03-19 06:58:00,41.0,40.5,29.83,SE,135,0.0,0.0,98,0.00,CLR,,0.00,WeatherDisplay:10.37,2013-03-19 10:58:00,
2013-03-19 07:03:00,41.0,40.5,29.83,SE,135,0.0,0.0,98,0.00,CLR,,0.00,WeatherDisplay:10.37,2013-03-19 11:03:00,
2013-03-19 07:08:00,41.0,40.5,29.83,ESE,112,0.0,0.0,98,0.00,CLR,,0.00,WeatherDisplay:10.37,2013-03-19 11:08:00,
2013-03-19 07:13:00,41.2,40.7,29.83,SE,135,0.0,0.0,98,0.00,CLR,,0.00,WeatherDisplay:10.37,2013-03-19 11:13:00,
2013-03-19 07:18:00,41.2,40.7,29.83,SE,135,0.0,0.0,98,0.00,CLR,,0.00,WeatherDisplay:10.37,2013-03-19 11:18:00,
2013-03-19 07:23:00,41.2,40.7,29.83,NE,45,0.0,0.0,98,0.00,CLR,,0.00,WeatherDisplay:10.37,2013-03-19 11:23:00,
2013-03-19 07:28:00,41.2,40.7,29.83,NE,45,0.0,0.0,98,0.00,CLR,,0.00,WeatherDisplay:10.37,2013-03-19 11:28:00,
2013-03-19 07:33:00,41.4,40.8,29.83,NE,45,0.0,0.0,98,0.00,CLR,,0.00,WeatherDisplay:10.37,2013-03-19 11:33:00,
2013-03-19 07:38:00,41.4,40.8,29.83,SE,135,0.0,0.0,98,0.00,CLR,,0.00,WeatherDisplay:10.37,2013-03-19 11:38:00,
2013-03-19 07:43:00,41.4,40.8,29.83,SE,135,0.0,0.0,98,0.00,CLR,,0.00,WeatherDisplay:10.37,2013-03-19 11:43:00,
2013-03-19 07:48:00,41.4,40.8,29.83,SE,135,0.0,0.0,98,0.00,CLR,,0.00,WeatherDisplay:10.37,2013-03-19 11:48:00,
2013-03-19 07:53:00,41.5,41.0,29.83,WSW,248,0.0,0.0,98,0.00,CLR,,0.00,WeatherDisplay:10.37,2013-03-19 11:53:00,
2013-03-19 07:58:00,41.5,41.0,29.83,WSW,248,0.0,0.0,98,0.00,CLR,,0.00,WeatherDisplay:10.37,2013-03-19 11:58:00,
2013-03-19 08:03:00,41.5,41.0,29.83,WSW,248,0.0,0.0,98,0.00,CLR,,0.00,WeatherDisplay:10.37,2013-03-19 12:03:00,
2013-03-19 08:08:00,41.5,41.0,29.83,WSW,248,0.0,0.0,98,0.00,CLR,,0.00,WeatherDisplay:10.37,2013-03-19 12:08:00,
2013-03-19 08:13:00,41.7,41.2,29.83,WSW,248,0.0,0.0,98,0.00,CLR,,0.00,WeatherDisplay:10.37,2013-03-19 12:13:00,
2013-03-19 08:18:00,41.9,41.4,29.83,WSW,248,0.0,0.0,98,0.00,CLR,,0.00,WeatherDisplay:10.37,2013-03-19 12:18:00,
2013-03-19 08:23:00,42.1,41.6,29.83,SW,225,0.0,0.0,98,0.00,CLR,,0.00,WeatherDisplay:10.37,2013-03-19 12:23:00,
2013-03-19 08:28:00,42.3,41.7,29.85,WNW,292,0.0,0.0,98,0.00,CLR,,0.00,WeatherDisplay:10.37,2013-03-19 12:28:00,
2013-03-19 08:33:00,42.6,42.1,29.85,SW,225,0.0,0.0,98,0.00,CLR,,0.00,WeatherDisplay:10.37,2013-03-19 12:33:00,
2013-03-19 08:38:00,42.8,42.3,29.85,WNW,292,0.0,0.0,98,0.00,CLR,,0.00,WeatherDisplay:10.37,2013-03-19 12:38:00,
2013-03-19 08:43:00,43.0,42.5,29.85,WNW,292,0.0,0.0,98,0.00,CLR,,0.00,WeatherDisplay:10.37,2013-03-19 12:43:00,
2013-03-19 08:48:00,43.3,42.8,29.85,West,270,0.0,0.0,98,0.00,CLR,,0.00,WeatherDisplay:10.37,2013-03-19 12:48:00,
2013-03-19 08:53:00,43.5,43.0,29.85,South,180,0.0,0.0,98,0.00,CLR,,0.00,WeatherDisplay:10.37,2013-03-19 12:53:00,
2013-03-19 08:58:00,43.9,43.4,29.85,WSW,248,0.0,0.0,98,0.00,CLR,,0.00,WeatherDisplay:10.37,2013-03-19 12:58:00,
2013-03-19 09:03:00,44.1,43.5,29.85,NNE,22,0.0,0.0,98,0.00,CLR,,0.00,WeatherDisplay:10.37,2013-03-19 13:03:00,
2013-03-19 09:08:00,44.4,43.9,29.85,NNE,22,0.0,0.0,98,0.00,CLR,,0.00,WeatherDisplay:10.37,2013-03-19 13:08:00,
2013-03-19 09:13:00,44.6,44.1,29.85,SSW,202,0.0,0.0,98,0.00,CLR,,0.00,WeatherDisplay:10.37,2013-03-19 13:13:00,
2013-03-19 09:18:00,45.0,44.4,29.85,NNW,338,0.0,0.0,98,0.00,CLR,,0.00,WeatherDisplay:10.37,2013-03-19 13:18:00,
2013-03-19 09:23:00,45.1,44.6,29.85,SSW,202,0.0,0.0,98,0.00,CLR,,0.00,WeatherDisplay:10.37,2013-03-19 13:23:00,
2013-03-19 09:28:00,45.5,45.0,29.88,SSW,202,0.0,0.0,98,0.00,CLR,,0.00,WeatherDisplay:10.37,2013-03-19 13:28:00,
2013-03-19 09:33:00,45.5,45.0,29.88,West,270,0.0,0.0,98,0.00,CLR,,0.00,WeatherDisplay:10.37,2013-03-19 13:33:00,
2013-03-19 09:38:00,45.7,45.1,29.88,NW,315,0.0,0.0,98,0.00,CLR,,0.00,WeatherDisplay:10.37,2013-03-19 13:38:00,
2013-03-19 09:43:00,46.0,45.5,29.88,West,270,0.0,0.0,98,0.00,CLR,,0.00,WeatherDisplay:10.37,2013-03-19 13:43:00,
2013-03-19 09:48:00,46.2,45.7,29.88,NW,315,0.0,0.0,98,0.00,CLR,,0.00,WeatherDisplay:10.37,2013-03-19 13:48:00,
2013-03-19 09:53:00,46.4,45.9,29.88,West,270,0.0,0.0,98,0.00,CLR,,0.00,WeatherDisplay:10.37,2013-03-19 13:53:00,
2013-03-19 09:58:00,46.8,46.2,29.88,SE,135,0.0,0.0,98,0.00,CLR,,0.00,WeatherDisplay:10.37,2013-03-19 13:58:00,
2013-03-19 10:03:00,47.7,47.1,29.88,SSE,158,0.0,0.0,98,0.00,CLR,,0.00,WeatherDisplay:10.37,2013-03-19 14:03:00,
2013-03-19 10:08:00,48.0,47.5,29.88,SSE,158,0.0,0.0,98,0.00,CLR,,0.00,WeatherDisplay:10.37,2013-03-19 14:08:00,
2013-03-19 10:13:00,48.7,48.2,29.88,SW,225,0.0,0.0,98,0.00,CLR,,0.00,WeatherDisplay:10.37,2013-03-19 14:13:00,
2013-03-19 10:18:00,49.5,48.9,29.88,SSW,202,0.0,0.0,98,0.00,CLR,,0.00,WeatherDisplay:10.37,2013-03-19 14:18:00,
2013-03-19 10:23:00,50.0,49.5,29.88,WNW,292,0.0,0.0,98,0.00,CLR,,0.00,WeatherDisplay:10.37,2013-03-19 14:23:00,
2013-03-19 10:28:00,49.8,48.4,29.88,East,90,0.0,0.0,95,0.00,CLR,,0.00,WeatherDisplay:10.37,2013-03-19 14:28:00,
2013-03-19 10:33:00,50.0,47.8,29.88,North,0,0.0,0.0,92,0.00,CLR,,0.00,WeatherDisplay:10.37,2013-03-19 14:33:00,
2013-03-19 10:38:00,51.3,47.5,29.88,North,0,0.0,0.0,87,0.00,CLR,,0.00,WeatherDisplay:10.37,2013-03-19 14:38:00,
2013-03-19 10:43:00,52.0,47.0,29.88,NNW,338,0.0,0.0,83,0.00,CLR,,0.00,WeatherDisplay:10.37,2013-03-19 14:43:00,
2013-03-19 10:48:00,52.5,45.5,29.88,NNW,338,2.3,0.0,77,0.00,CLR,,0.00,WeatherDisplay:10.37,2013-03-19 14:48:00,
2013-03-19 10:53:00,52.7,43.9,29.88,NNE,22,0.0,0.0,72,0.00,CLR,,0.00,WeatherDisplay:10.37,2013-03-19 14:53:00,
2013-03-19 10:58:00,53.1,43.2,29.88,NNW,338,0.0,0.0,69,0.00,CLR,,0.00,WeatherDisplay:10.37,2013-03-19 14:58:00,
2013-03-19 11:03:00,53.4,42.3,29.88,NNW,338,0.0,0.0,66,0.00,CLR,,0.00,WeatherDisplay:10.37,2013-03-19 15:03:00,
2013-03-19 11:08:00,54.5,42.6,29.88,East,90,0.0,0.0,64,0.00,CLR,,0.00,WeatherDisplay:10.37,2013-03-19 15:08:00,
2013-03-19 11:13:00,55.8,43.8,29.88,WNW,292,0.0,0.0,64,0.00,CLR,,0.00,WeatherDisplay:10.37,2013-03-19 15:13:00,
2013-03-19 11:18:00,57.2,41.6,29.88,NNW,338,0.0,0.0,56,0.00,CLR,,0.00,WeatherDisplay:10.37,2013-03-19 15:18:00,
2013-03-19 11:23:00,58.5,40.4,29.88,SSW,202,0.0,0.0,51,0.00,CLR,,0.00,WeatherDisplay:10.37,2013-03-19 15:23:00,
2013-03-19 11:28:00,59.7,40.0,29.88,ESE,112,0.0,0.0,48,0.00,CLR,,0.00,WeatherDisplay:10.37,2013-03-19 15:28:00,
2013-03-19 11:33:00,59.9,34.9,29.88,NW,315,2.6,0.0,39,0.00,CLR,,0.00,WeatherDisplay:10.37,2013-03-19 15:33:00,
2013-03-19 11:38:00,60.6,32.8,29.88,NW,315,0.0,0.0,35,0.00,CLR,,0.00,WeatherDisplay:10.37,2013-03-19 15:38:00,
2013-03-19 11:43:00,60.8,32.2,29.88,WNW,292,2.3,0.0,34,0.00,CLR,,0.00,WeatherDisplay:10.37,2013-03-19 15:43:00,
2013-03-19 11:48:00,61.0,30.1,29.88,NW,315,0.0,0.0,31,0.00,CLR,,0.00,WeatherDisplay:10.37,2013-03-19 15:48:00,
2013-03-19 11:53:00,61.5,29.8,29.88,East,90,0.0,0.0,30,0.00,CLR,,0.00,WeatherDisplay:10.37,2013-03-19 15:53:00,
2013-03-19 11:58:00,62.2,27.8,29.85,WNW,292,0.0,0.0,27,0.00,CLR,,0.00,WeatherDisplay:10.37,2013-03-19 15:58:00,
2013-03-19 12:03:00,63.1,27.7,29.85,NW,315,0.0,0.0,26,0.00,CLR,,0.00,WeatherDisplay:10.37,2013-03-19 16:03:00,
2013-03-19 12:08:00,64.0,27.5,29.85,SSE,158,0.0,0.0,25,0.00,CLR,,0.00,WeatherDisplay:10.37,2013-03-19 16:08:00,
2013-03-19 12:13:00,64.2,27.6,29.85,NE,45,0.0,0.0,25,0.00,CLR,,0.00,WeatherDisplay:10.37,2013-03-19 16:13:00,
2013-03-19 12:18:00,63.5,26.0,29.85,NE,45,0.0,0.0,24,0.00,CLR,,0.00,WeatherDisplay:10.37,2013-03-19 16:18:00,
2013-03-19 12:23:00,63.9,26.3,29.85,NNW,338,0.0,0.0,24,0.00,CLR,,0.00,WeatherDisplay:10.37,2013-03-19 16:23:00,
2013-03-19 12:28:00,64.4,25.8,29.85,SW,225,0.0,0.0,23,0.00,CLR,,0.00,WeatherDisplay:10.37,2013-03-19 16:28:00,
2013-03-19 12:33:00,64.4,25.8,29.85,NE,45,2.3,0.0,23,0.00,CLR,,0.00,WeatherDisplay:10.37,2013-03-19 16:33:00,
2013-03-19 12:38:00,65.3,26.5,29.85,NNW,338,0.0,0.0,23,0.00,CLR,,0.00,WeatherDisplay:10.37,2013-03-19 16:38:00,
2013-03-19 12:43:00,64.9,22.9,29.85,NNW,338,0.0,0.0,20,0.00,CLR,,0.00,WeatherDisplay:10.37,2013-03-19 16:43:00,
2013-03-19 12:48:00,66.4,24.1,29.85,NNW,338,3.5,0.0,20,0.00,CLR,,0.00,WeatherDisplay:10.37,2013-03-19 16:48:00,
2013-03-19 12:53:00,67.3,24.8,29.85,NW,315,2.3,0.0,20,0.00,CLR,,0.00,WeatherDisplay:10.37,2013-03-19 16:53:00,
2013-03-19 12:58:00,65.5,20.8,29.85,NNW,338,0.0,0.0,18,0.00,CLR,,0.00,WeatherDisplay:10.37,2013-03-19 16:58:00,
2013-03-19 13:03:00,66.4,20.2,29.85,NW,315,0.0,0.0,17,0.00,CLR,,0.00,WeatherDisplay:10.37,2013-03-19 17:03:00,
2013-03-19 13:08:00,66.7,20.5,29.85,SE,135,0.0,0.0,17,0.00,CLR,,0.00,WeatherDisplay:10.37,2013-03-19 17:08:00,
2013-03-19 13:14:00,67.5,21.1,29.85,West,270,0.0,0.0,17,0.00,CLR,,0.00,WeatherDisplay:10.37,2013-03-19 17:14:00,
2013-03-19 13:19:00,66.9,20.6,29.85,SSE,158,0.0,0.0,17,0.00,CLR,,0.00,WeatherDisplay:10.37,2013-03-19 17:19:00,
2013-03-19 13:24:00,67.8,25.2,29.85,NW,315,0.0,0.0,20,0.00,CLR,,0.00,WeatherDisplay:10.37,2013-03-19 17:24:00,
2013-03-19 13:29:00,67.5,24.9,29.85,WNW,292,0.0,0.0,20,0.00,CLR,,0.00,WeatherDisplay:10.37,2013-03-19 17:29:00,
2013-03-19 13:34:00,67.6,21.2,29.85,ENE,68,0.0,0.0,17,0.00,CLR,,0.00,WeatherDisplay:10.37,2013-03-19 17:34:00,
2013-03-19 13:39:00,67.5,21.1,29.85,SE,135,2.3,0.0,17,0.00,CLR,,0.00,WeatherDisplay:10.37,2013-03-19 17:39:00,
2013-03-19 13:44:00,66.6,20.3,29.85,NW,315,0.0,0.0,17,0.00,CLR,,0.00,WeatherDisplay:10.37,2013-03-19 17:44:00,
2013-03-19 13:49:00,68.0,21.5,29.85,NW,315,0.0,0.0,17,0.00,CLR,,0.00,WeatherDisplay:10.37,2013-03-19 17:49:00,
2013-03-19 13:54:00,69.1,22.4,29.85,WNW,292,0.0,0.0,17,0.00,CLR,,0.00,WeatherDisplay:10.37,2013-03-19 17:54:00,
2013-03-19 13:59:00,68.7,22.1,29.85,West,270,0.0,0.0,17,0.00,CLR,,0.00,WeatherDisplay:10.37,2013-03-19 17:59:00,
2013-03-19 14:04:00,69.3,22.5,29.85,SSW,202,2.3,0.0,17,0.00,CLR,,0.00,WeatherDisplay:10.37,2013-03-19 18:04:00,
2013-03-19 14:09:00,69.4,22.7,29.85,NW,315,2.3,0.0,17,0.00,CLR,,0.00,WeatherDisplay:10.37,2013-03-19 18:09:00,
2013-03-19 14:14:00,69.6,22.8,29.85,NNW,338,0.0,0.0,17,0.00,CLR,,0.00,WeatherDisplay:10.37,2013-03-19 18:14:00,
2013-03-19 14:19:00,69.8,23.0,29.85,North,0,0.0,0.0,17,0.00,CLR,,0.00,WeatherDisplay:10.37,2013-03-19 18:19:00,
2013-03-19 14:24:00,68.7,22.1,29.85,WNW,292,0.0,0.0,17,0.00,CLR,,0.00,WeatherDisplay:10.37,2013-03-19 18:24:00,
2013-03-19 14:29:00,69.6,22.8,29.85,NNE,22,0.0,0.0,17,0.00,CLR,,0.00,WeatherDisplay:10.37,2013-03-19 18:29:00,
2013-03-19 14:34:00,70.3,23.4,29.85,North,0,3.5,0.0,17,0.00,CLR,,0.00,WeatherDisplay:10.37,2013-03-19 18:34:00,
2013-03-19 14:39:00,69.6,19.9,29.85,WSW,248,2.2,0.0,15,0.00,CLR,,0.00,WeatherDisplay:10.37,2013-03-19 18:39:00,
2013-03-19 14:44:00,69.1,19.4,29.83,North,0,0.0,0.0,15,0.00,CLR,,0.00,WeatherDisplay:10.37,2013-03-19 18:44:00,
2013-03-19 14:49:00,70.0,18.5,29.83,WSW,248,0.0,0.0,14,0.00,CLR,,0.00,WeatherDisplay:10.37,2013-03-19 18:49:00,
2013-03-19 14:54:00,70.2,18.7,29.83,WNW,292,0.0,0.0,14,0.00,CLR,,0.00,WeatherDisplay:10.37,2013-03-19 18:54:00,
2013-03-19 14:59:00,70.3,18.8,29.83,SSE,158,0.0,0.0,14,0.00,CLR,,0.00,WeatherDisplay:10.37,2013-03-19 18:59:00,
2013-03-19 15:04:00,70.3,18.8,29.83,NNW,338,0.0,0.0,14,0.00,CLR,,0.00,WeatherDisplay:10.37,2013-03-19 19:04:00,
2013-03-19 15:09:00,70.0,18.5,29.83,East,90,0.0,0.0,14,0.00,CLR,,0.00,WeatherDisplay:10.37,2013-03-19 19:09:00,
2013-03-19 15:14:00,70.0,18.5,29.83,WSW,248,2.3,0.0,14,0.00,CLR,,0.00,WeatherDisplay:10.37,2013-03-19 19:14:00,
2013-03-19 15:19:00,69.8,18.4,29.83,South,180,2.3,0.0,14,0.00,CLR,,0.00,WeatherDisplay:10.37,2013-03-19 19:19:00,
2013-03-19 15:24:00,69.4,19.7,29.83,SE,135,0.0,0.0,15,0.00,CLR,,0.00,WeatherDisplay:10.37,2013-03-19 19:24:00,
2013-03-19 15:29:00,69.4,19.7,29.83,South,180,2.6,0.0,15,0.00,CLR,,0.00,WeatherDisplay:10.37,2013-03-19 19:29:00,
2013-03-19 15:34:00,69.1,19.4,29.83,SSE,158,2.3,0.0,15,0.00,CLR,,0.00,WeatherDisplay:10.37,2013-03-19 19:34:00,
2013-03-19 15:39:00,69.4,19.7,29.83,NW,315,3.5,0.0,15,0.00,CLR,,0.00,WeatherDisplay:10.37,2013-03-19 19:39:00,
2013-03-19 15:44:00,69.4,19.7,29.83,NE,45,0.0,0.0,15,0.00,CLR,,0.00,WeatherDisplay:10.37,2013-03-19 19:44:00,
2013-03-19 15:49:00,68.4,18.9,29.83,West,270,3.5,0.0,15,0.00,CLR,,0.00,WeatherDisplay:10.37,2013-03-19 19:49:00,
2013-03-19 15:54:00,68.2,18.7,29.83,ESE,112,0.0,0.0,15,0.00,CLR,,0.00,WeatherDisplay:10.37,2013-03-19 19:54:00,
2013-03-19 15:59:00,67.8,18.4,29.83,NW,315,0.0,0.0,15,0.00,CLR,,0.00,WeatherDisplay:10.37,2013-03-19 19:59:00,
2013-03-19 16:04:00,67.8,18.4,29.83,NNE,22,0.0,0.0,15,0.00,CLR,,0.00,WeatherDisplay:10.37,2013-03-19 20:04:00,
2013-03-19 16:09:00,67.8,18.4,29.83,WSW,248,0.0,0.0,15,0.00,CLR,,0.00,WeatherDisplay:10.37,2013-03-19 20:09:00,
2013-03-19 16:14:00,67.5,18.1,29.85,NW,315,0.0,0.0,15,0.00,CLR,,0.00,WeatherDisplay:10.37,2013-03-19 20:14:00,
2013-03-19 16:19:00,66.9,17.7,29.85,NW,315,4.6,0.0,15,0.00,CLR,,0.00,WeatherDisplay:10.37,2013-03-19 20:19:00,
2013-03-19 16:24:00,66.9,17.7,29.85,NW,315,3.5,0.0,15,0.00,CLR,,0.00,WeatherDisplay:10.37,2013-03-19 20:24:00,
2013-03-19 16:29:00,66.7,17.6,29.83,WNW,292,0.0,0.0,15,0.00,CLR,,0.00,WeatherDisplay:10.37,2013-03-19 20:29:00,
2013-03-19 16:34:00,66.4,17.3,29.83,WNW,292,4.0,0.0,15,0.00,CLR,,0.00,WeatherDisplay:10.37,2013-03-19 20:34:00,
2013-03-19 16:39:00,66.2,17.1,29.83,NNW,338,0.0,0.0,15,0.00,CLR,,0.00,WeatherDisplay:10.37,2013-03-19 20:39:00,
2013-03-19 16:45:00,66.0,17.0,29.83,WSW,248,0.0,0.0,15,0.00,CLR,,0.00,WeatherDisplay:10.37,2013-03-19 20:45:00,
2013-03-19 16:50:00,66.0,17.0,29.83,NNW,338,0.0,0.0,15,0.00,CLR,,0.00,WeatherDisplay:10.37,2013-03-19 20:50:00,
2013-03-19 16:55:00,66.2,17.1,29.83,NNW,338,0.0,0.0,15,0.00,CLR,,0.00,WeatherDisplay:10.37,2013-03-19 20:55:00,
2013-03-19 17:00:00,66.0,17.0,29.85,West,270,2.3,0.0,15,0.00,CLR,,0.00,WeatherDisplay:10.37,2013-03-19 21:00:00,
2013-03-19 17:05:00,66.2,17.1,29.85,West,270,0.0,0.0,15,0.00,CLR,,0.00,WeatherDisplay:10.37,2013-03-19 21:05:00,
2013-03-19 17:10:00,66.2,17.1,29.85,NNW,338,3.5,0.0,15,0.00,CLR,,0.00,WeatherDisplay:10.37,2013-03-19 21:10:00,
2013-03-19 17:15:00,66.2,17.1,29.85,North,0,0.0,0.0,15,0.00,CLR,,0.00,WeatherDisplay:10.37,2013-03-19 21:15:00,
2013-03-19 17:20:00,66.2,17.1,29.85,NW,315,4.0,0.0,15,0.00,CLR,,0.00,WeatherDisplay:10.37,2013-03-19 21:20:00,
2013-03-19 17:25:00,66.2,17.1,29.85,NW,315,0.0,0.0,15,0.00,CLR,,0.00,WeatherDisplay:10.37,2013-03-19 21:25:00,
2013-03-19 17:30:00,66.0,17.0,29.85,WNW,292,0.0,0.0,15,0.00,CLR,,0.00,WeatherDisplay:10.37,2013-03-19 21:30:00,
2013-03-19 17:35:00,65.7,16.7,29.85,NW,315,0.0,0.0,15,0.00,CLR,,0.00,WeatherDisplay:10.37,2013-03-19 21:35:00,
2013-03-19 17:40:00,65.5,16.5,29.85,NW,315,0.0,0.0,15,0.00,CLR,,0.00,WeatherDisplay:10.37,2013-03-19 21:40:00,
2013-03-19 17:45:00,65.3,16.4,29.85,NW,315,0.0,0.0,15,0.00,CLR,,0.00,WeatherDisplay:10.37,2013-03-19 21:45:00,
2013-03-19 17:50:00,65.3,16.4,29.85,NW,315,0.0,0.0,15,0.00,CLR,,0.00,WeatherDisplay:10.37,2013-03-19 21:50:00,
2013-03-19 17:55:00,64.9,16.1,29.85,NW,315,0.0,0.0,15,0.00,CLR,,0.00,WeatherDisplay:10.37,2013-03-19 21:55:00,
2013-03-19 18:00:00,64.6,15.8,29.85,NW,315,0.0,0.0,15,0.00,CLR,,0.00,WeatherDisplay:10.37,2013-03-19 22:00:00,
2013-03-19 18:05:00,64.4,15.7,29.85,NW,315,0.0,0.0,15,0.00,CLR,,0.00,WeatherDisplay:10.37,2013-03-19 22:05:00,
2013-03-19 18:10:00,64.0,16.9,29.85,WSW,248,0.0,0.0,16,0.00,CLR,,0.00,WeatherDisplay:10.37,2013-03-19 22:10:00,
2013-03-19 18:15:00,63.9,16.7,29.85,SSE,158,2.2,0.0,16,0.00,CLR,,0.00,WeatherDisplay:10.37,2013-03-19 22:15:00,
2013-03-19 18:20:00,63.5,16.4,29.85,West,270,0.0,0.0,16,0.00,CLR,,0.00,WeatherDisplay:10.37,2013-03-19 22:20:00,
2013-03-19 18:25:00,63.3,16.3,29.85,NW,315,0.0,0.0,16,0.00,CLR,,0.00,WeatherDisplay:10.37,2013-03-19 22:25:00,
2013-03-19 18:30:00,63.0,16.0,29.88,WSW,248,0.0,0.0,16,0.00,CLR,,0.00,WeatherDisplay:10.37,2013-03-19 22:30:00,
2013-03-19 18:35:00,62.6,15.7,29.88,West,270,0.0,0.0,16,0.00,CLR,,0.00,WeatherDisplay:10.37,2013-03-19 22:35:00,
2013-03-19 18:40:00,62.4,15.6,29.88,NW,315,0.0,0.0,16,0.00,CLR,,0.00,WeatherDisplay:10.37,2013-03-19 22:40:00,
2013-03-19 18:45:00,61.9,15.1,29.85,WNW,292,0.0,0.0,16,0.00,CLR,,0.00,WeatherDisplay:10.37,2013-03-19 22:45:00,
2013-03-19 18:50:00,61.5,14.8,29.85,NNE,22,2.3,0.0,16,0.00,CLR,,0.00,WeatherDisplay:10.37,2013-03-19 22:50:00,
2013-03-19 18:55:00,61.3,14.7,29.85,NW,315,0.0,0.0,16,0.00,CLR,,0.00,WeatherDisplay:10.37,2013-03-19 22:55:00,
2013-03-19 19:00:00,60.8,14.3,29.88,NW,315,0.0,0.0,16,0.00,CLR,,0.00,WeatherDisplay:10.37,2013-03-19 23:00:00,
2013-03-19 19:05:00,60.4,15.4,29.88,NW,315,0.0,0.0,17,0.00,CLR,,0.00,WeatherDisplay:10.37,2013-03-19 23:05:00,
2013-03-19 19:10:00,60.3,15.2,29.88,West,270,0.0,0.0,17,0.00,CLR,,0.00,WeatherDisplay:10.37,2013-03-19 23:10:00,
2013-03-19 19:15:00,59.9,14.9,29.88,South,180,2.3,0.0,17,0.00,CLR,,0.00,WeatherDisplay:10.37,2013-03-19 23:15:00,
2013-03-19 19:20:00,59.7,14.8,29.88,NW,315,0.0,0.0,17,0.00,CLR,,0.00,WeatherDisplay:10.37,2013-03-19 23:20:00,
2013-03-19 19:25:00,59.7,14.8,29.88,NNW,338,0.0,0.0,17,0.00,CLR,,0.00,WeatherDisplay:10.37,2013-03-19 23:25:00,
2013-03-19 19:30:00,59.4,14.5,29.91,NNW,338,0.0,0.0,17,0.00,CLR,,0.00,WeatherDisplay:10.37,2013-03-19 23:30:00,
2013-03-19 19:35:00,59.0,14.2,29.91,NNW,338,0.0,0.0,17,0.00,CLR,,0.00,WeatherDisplay:10.37,2013-03-19 23:35:00,
2013-03-19 19:40:00,58.8,14.0,29.91,WNW,292,0.0,0.0,17,0.00,CLR,,0.00,WeatherDisplay:10.37,2013-03-19 23:40:00,
2013-03-19 19:45:00,58.6,13.9,29.91,SW,225,0.0,0.0,17,0.00,CLR,,0.00,WeatherDisplay:10.37,2013-03-19 23:45:00,
2013-03-19 19:50:00,58.3,13.6,29.91,WSW,248,0.0,0.0,17,0.00,CLR,,0.00,WeatherDisplay:10.37,2013-03-19 23:50:00,
2013-03-19 19:55:00,57.9,13.3,29.91,WSW,248,0.0,0.0,17,0.00,CLR,,0.00,WeatherDisplay:10.37,2013-03-19 23:55:00,
2013-03-19 20:00:00,57.4,12.9,29.91,WSW,248,0.0,0.0,17,0.00,CLR,,0.00,WeatherDisplay:10.37,2013-03-20 00:00:00,
2013-03-19 20:05:00,57.2,12.7,29.91,WSW,248,0.0,0.0,17,0.00,CLR,,0.00,WeatherDisplay:10.37,2013-03-20 00:05:00,
2013-03-19 20:10:00,56.5,12.1,29.91,WSW,248,0.0,0.0,17,0.00,CLR,,0.00,WeatherDisplay:10.37,2013-03-20 00:10:00,
2013-03-19 20:15:00,55.9,11.7,29.91,WSW,248,0.0,0.0,17,0.00,CLR,,0.00,WeatherDisplay:10.37,2013-03-20 00:15:00,
2013-03-19 20:20:00,55.6,11.4,29.91,WSW,248,0.0,0.0,17,0.00,CLR,,0.00,WeatherDisplay:10.37,2013-03-20 00:20:00,
2013-03-19 20:25:00,55.0,12.2,29.91,WSW,248,0.0,0.0,18,0.00,CLR,,0.00,WeatherDisplay:10.37,2013-03-20 00:25:00,
2013-03-19 20:30:00,54.3,14.0,29.91,WSW,248,0.0,0.0,20,0.00,CLR,,0.00,WeatherDisplay:10.37,2013-03-20 00:30:00,
2013-03-19 20:35:00,53.8,13.6,29.91,WSW,248,0.0,0.0,20,0.00,CLR,,0.00,WeatherDisplay:10.37,2013-03-20 00:35:00,
2013-03-19 20:40:00,53.4,14.4,29.91,WSW,248,0.0,0.0,21,0.00,CLR,,0.00,WeatherDisplay:10.37,2013-03-20 00:40:00,
2013-03-19 20:45:00,53.1,14.1,29.94,WSW,248,0.0,0.0,21,0.00,CLR,,0.00,WeatherDisplay:10.37,2013-03-20 00:45:00,
2013-03-19 20:50:00,52.9,13.9,29.94,WSW,248,0.0,0.0,21,0.00,CLR,,0.00,WeatherDisplay:10.37,2013-03-20 00:50:00,
2013-03-19 20:55:00,52.5,13.6,29.94,WSW,248,0.0,0.0,21,0.00,CLR,,0.00,WeatherDisplay:10.37,2013-03-20 00:55:00,
2013-03-19 21:00:00,52.5,13.6,29.94,WSW,248,0.0,0.0,21,0.00,CLR,,0.00,WeatherDisplay:10.37,2013-03-20 01:00:00,
2013-03-19 21:05:00,52.7,13.8,29.94,WSW,248,0.0,0.0,21,0.00,CLR,,0.00,WeatherDisplay:10.37,2013-03-20 01:05:00,
2013-03-19 21:10:00,52.3,13.5,29.94,WSW,248,0.0,0.0,21,0.00,CLR,,0.00,WeatherDisplay:10.37,2013-03-20 01:10:00,
2013-03-19 21:15:00,52.5,13.6,29.94,WSW,248,0.0,0.0,21,0.00,CLR,,0.00,WeatherDisplay:10.37,2013-03-20 01:15:00,
2013-03-19 21:20:00,52.3,13.5,29.94,WSW,248,0.0,0.0,21,0.00,CLR,,0.00,WeatherDisplay:10.37,2013-03-20 01:20:00,
2013-03-19 21:25:00,52.7,13.8,29.94,WSW,248,0.0,0.0,21,0.00,CLR,,0.00,WeatherDisplay:10.37,2013-03-20 01:25:00,
2013-03-19 21:30:00,52.5,13.6,29.97,WSW,248,0.0,0.0,21,0.00,CLR,,0.00,WeatherDisplay:10.37,2013-03-20 01:30:00,
2013-03-19 21:35:00,52.7,13.8,29.97,WSW,248,0.0,0.0,21,0.00,CLR,,0.00,WeatherDisplay:10.37,2013-03-20 01:35:00,
2013-03-19 21:40:00,53.2,14.2,29.97,WSW,248,0.0,0.0,21,0.00,CLR,,0.00,WeatherDisplay:10.37,2013-03-20 01:40:00,
2013-03-19 21:45:00,53.2,14.2,29.97,WSW,248,0.0,0.0,21,0.00,CLR,,0.00,WeatherDisplay:10.37,2013-03-20 01:45:00,
2013-03-19 21:50:00,53.2,14.2,29.97,WSW,248,0.0,0.0,21,0.00,CLR,,0.00,WeatherDisplay:10.37,2013-03-20 01:50:00,
2013-03-19 21:55:00,53.6,11.0,29.97,WNW,292,0.0,0.0,18,0.00,CLR,,0.00,WeatherDisplay:10.37,2013-03-20 01:55:00,
2013-03-19 22:00:00,53.2,14.2,29.97,WSW,248,0.0,0.0,21,0.00,CLR,,0.00,WeatherDisplay:10.37,2013-03-20 02:00:00,
2013-03-19 22:05:00,53.1,10.6,29.97,NW,315,0.0,0.0,18,0.00,CLR,,0.00,WeatherDisplay:10.37,2013-03-20 02:05:00,
2013-03-19 22:10:00,53.1,10.6,29.97,NW,315,0.0,0.0,18,0.00,CLR,,0.00,WeatherDisplay:10.37,2013-03-20 02:10:00,
2013-03-19 22:15:00,53.1,10.6,29.97,NW,315,0.0,0.0,18,0.00,CLR,,0.00,WeatherDisplay:10.37,2013-03-20 02:15:00,
2013-03-19 22:20:00,52.7,10.3,29.97,NW,315,0.0,0.0,18,0.00,CLR,,0.00,WeatherDisplay:10.37,2013-03-20 02:20:00,
2013-03-19 22:25:00,52.2,9.9,29.97,NW,315,0.0,0.0,18,0.00,CLR,,0.00,WeatherDisplay:10.37,2013-03-20 02:25:00,
2013-03-19 22:30:00,52.2,9.9,29.97,NW,315,0.0,0.0,18,0.00,CLR,,0.00,WeatherDisplay:10.37,2013-03-20 02:30:00,
2013-03-19 22:35:00,52.0,9.7,29.97,NNW,338,0.0,0.0,18,0.00,CLR,,0.00,WeatherDisplay:10.37,2013-03-20 02:35:00,
2013-03-19 22:40:00,51.8,9.6,29.97,NW,315,0.0,0.0,18,0.00,CLR,,0.00,WeatherDisplay:10.37,2013-03-20 02:40:00,
2013-03-19 22:45:00,52.5,10.2,29.97,NW,315,0.0,0.0,18,0.00,CLR,,0.00,WeatherDisplay:10.37,2013-03-20 02:45:00,
2013-03-19 22:50:00,52.3,10.0,29.97,WNW,292,0.0,0.0,18,0.00,CLR,,0.00,WeatherDisplay:10.37,2013-03-20 02:50:00,
2013-03-19 22:55:00,52.0,9.7,29.97,WNW,292,0.0,0.0,18,0.00,CLR,,0.00,WeatherDisplay:10.37,2013-03-20 02:55:00,
2013-03-19 23:00:00,51.6,10.6,30.00,SW,225,0.0,0.0,19,0.00,CLR,,0.00,WeatherDisplay:10.37,2013-03-20 03:00:00,
2013-03-19 23:05:00,51.4,10.5,30.00,NNW,338,0.0,0.0,19,0.00,CLR,,0.00,WeatherDisplay:10.37,2013-03-20 03:05:00,
2013-03-19 23:10:00,51.1,10.2,30.00,NNW,338,0.0,0.0,19,0.00,CLR,,0.00,WeatherDisplay:10.37,2013-03-20 03:10:00,
2013-03-19 23:15:00,50.9,10.0,30.00,NNW,338,0.0,0.0,19,0.00,CLR,,0.00,WeatherDisplay:10.37,2013-03-20 03:15:00,
2013-03-19 23:20:00,50.4,9.6,30.00,NNW,338,0.0,0.0,19,0.00,CLR,,0.00,WeatherDisplay:10.37,2013-03-20 03:20:00,
2013-03-19 23:25:00,49.8,9.1,30.00,NNW,338,0.0,0.0,19,0.00,CLR,,0.00,WeatherDisplay:10.37,2013-03-20 03:25:00,
2013-03-19 23:30:00,49.8,9.1,30.00,NNW,338,0.0,0.0,19,0.00,CLR,,0.00,WeatherDisplay:10.37,2013-03-20 03:30:00,
2013-03-19 23:35:00,49.8,9.1,30.00,NNW,338,0.0,0.0,19,0.00,CLR,,0.00,WeatherDisplay:10.37,2013-03-20 03:35:00,
2013-03-19 23:40:00,50.0,9.3,30.00,NNW,338,0.0,0.0,19,0.00,CLR,,0.00,WeatherDisplay:10.37,2013-03-20 03:40:00,
2013-03-19 23:45:00,49.8,9.1,30.00,NNW,338,0.0,0.0,19,0.00,CLR,,0.00,WeatherDisplay:10.37,2013-03-20 03:45:00,
2013-03-19 23:50:00,49.8,9.1,30.00,NNW,338,0.0,0.0,19,0.00,CLR,,0.00,WeatherDisplay:10.37,2013-03-20 03:50:00,
2013-03-19 23:55:00,49.6,9.0,30.00,NNW,338,0.0,0.0,19,0.00,CLR,,0.00,WeatherDisplay:10.37,2013-03-20 03:55:00,